Location: ?????
(31.8092°N, 35.2590°E)
Time: 03:04:03
(UTC+00:00)

Lacrosse 5 - Pass Details

Date: 24 October 2021
Orbit: 714 x 724 km, 57.0° (Epoch: 28 August)

Event Time Altitude Azimuth Distance (km) Brightness Sun altitude
Exits shadow 01:18:17 16° 18° (NNE) 1,808 4.1 -32.6°
Maximum altitude 01:19:41 18° 39° (NE) 1,718 4.2 -32.3°
Drops below altitude 10° 01:23:07 10° 82° (E) 2,196 5.2 -31.6°
Sets 01:26:12 0° 101° (E) 3,111 6.2 -30.9°
